Regional Weather Roundup
Issued by NWS Kansas City/Pleasant Hill, MO

Home | Current Version | Previous Version | Text Only | Print | Product List | Glossary On
Versions: 1 2 3 4 5 6 7 8 9 10 11 12 13 14 15 16 17 18 19 20 21 22 23 24 25 26 27 28 29 30 31 32 33 34 35 36 37 38 39 40 41 42 43 44 45 46 47 48 49 50
000
ASUS43 KEAX 262010
RWREAX

WEATHER ROUNDUP FOR EASTERN KANSAS AND NORTHWEST MISSOURI
NATIONAL WEATHER SERVICE KANSAS CITY/PLEASANT HILL MO
300 PM CDT THU MAR 26 2015

KSZ040-057-103>105-MOZ028-029-037-043-262100-
...KANSAS CITY METROPOLITAN AREA...

CITY           SKY/WX    TMP DP  RH WIND       PRES   REMARKS
K.C. INTL      PTSUNNY   49  29  46 NW9       30.13F
K.C. DOWNTOWN  SUNNY     51  26  37 NW8       30.13F
LEES SUMMIT    SUNNY     50  28  42 NW12G21   30.13F
OLATHE - IXD   SUNNY     49  27  42 NW13G18   30.15F
OLATHE - OJC   SUNNY     50  26  39 NW12      30.13F
LAWRENCE       SUNNY     51  27  39 NW8G20    30.15F

$$

MOZ001>008-011>017-020>025-030>033-038>040-044>046-053-054-262100-
...NORTHERN AND CENTRAL MISSOURI...

CITY           SKY/WX    TMP DP  RH WIND       PRES   REMARKS
ST. JOSEPH     SUNNY     48  27  44 VRB7      30.13F
MOSBY          CLEAR     46  28  49 N10       30.13F
WARRENSBURG    SUNNY     50  28  43 NW9G17    30.13F
WHITEMAN AFB   SUNNY     49  29  44 NW10      30.11F
CLINTON        SUNNY     50  32  50 NW12      30.13F
SEDALIA        MOSUNNY   49  31  49 NW14G22   30.12F
WARSAW         NOT AVBL
MARSHALL       MOSUNNY   50  32  50 N9        30.12F
CHILLICOTHE      N/A     49  28  44 NW12G20   30.12F
MOBERLY        SUNNY     48  28  46 NW14G22   30.09F
KIRKSVILLE     MOSUNNY   50  25  37 NW14G21   30.08F

$$

MOZ041-047>049-056>058-063>065-088>090-097-262100-
...EASTERN AND SOUTHERN MISSOURI...

CITY           SKY/WX    TMP DP  RH WIND       PRES   REMARKS
ST. LOUIS INTL MOSUNNY   48  29  47 NW10      30.05F
SPIRIT OF STL  MOSUNNY   48  27  44 N13       30.05F
COLUMBIA       SUNNY     49  29  46 NW17      30.08F
JEFFERSON CITY SUNNY     49  28  44 NW13      30.09F
MEXICO         SUNNY     48  36  61 NW10      30.08F
HANNIBAL       SUNNY     50  19  29 W16G24    30.06F
ROLLA          SUNNY     47  31  53 MISG      30.05F
LEBANON        SUNNY     50  25  37 N13       30.07F
OSAGE BEACH    SUNNY     48  27  43 NW6G17    30.09F
SPRINGFIELD    SUNNY     51  29  42 N17       30.08F
BRANSON        MOSUNNY   50  32  50 N8G21     30.08F
NEVADA         SUNNY     50  28  43 NW8G20    30.14F
JOPLIN         SUNNY     51  29  42 N12G18    30.13F
WEST PLAINS    SUNNY     51  30  44 MISG      30.06F

$$

IAZ060-094-KSZ022-034>040-054-083-096-NEZ052-066-093-262100-
...KANSAS...SOUTHEAST NEBRASKA AND IOWA...

CITY           SKY/WX    TMP DP  RH WIND       PRES   REMARKS
TOPEKA         SUNNY     52  29  41 VRB7      30.15F
MANHATTAN      SUNNY     53  26  35 VRB3      30.13F
EMPORIA        SUNNY     52  24  33 N10       30.14F
CHANUTE        SUNNY     53  28  38 NW10      30.15F
WICHITA        MOSUNNY   54  29  38 W9        30.17F
OMAHA          PTSUNNY   49  24  37 N14       30.12F
LINCOLN        MOSUNNY   51  25  36 VRB5      30.11F
FALLS CITY     MOSUNNY   48  28  46 VRB5      30.12F
LAMONI         SUNNY     49  26  41 N13G23    30.08F
DES MOINES     PTSUNNY   46  22  38 N17G28    30.10F

$$



USA.gov is the U.S. government's official web portal to all federal, state and local government web resources and services.